Regional Weather Roundup
Issued by NWS

Home | Current Version | Previous Version | Text Only | Print | Product List | Glossary Off
Versions: 1 2 3 4 5 6 7 8 9 10 11 12 13 14 15 16 17 18 19 20 21 22 23 24 25 26 27 28 29 30 31 32 33 34 35 36 37 38 39 40 41 42 43 44 45 46 47 48 49 50

954
ASUS45 KTFX 250310
RWRMT
MONTANA REGIONAL WEATHER ROUNDUP
NATIONAL WEATHER SERVICE GREAT FALLS MT
900 PM MDT SUN JUL 24 2016

NOTE: "FAIR" INDICATES FEW OR NO CLOUDS BELOW 12000 FEET WITH NO
SIGNIFICANT WEATHER AND/OR OBSTRUCTIONS TO VISIBILITY.

MTZ001>007-043-250400-
WEST OF THE DIVIDE

CITY           SKY/WX    TMP DP  RH WIND       PRES   REMARKS
KALISPELL      CLEAR     74  49  41 VRB5      30.01S
MISSOULA       CLEAR     79  45  29 N6        30.02R
BUTTE          CLEAR     77  36  22 NW7       30.14R
MULLAN PASS    CLEAR     63  47  55 VRB3      30.21S
ANACONDA         N/A     70  45  40 N3        30.11R
DEER LODGE       N/A     72  41  33 W7        30.11S
EUREKA           N/A     82  50  32 S3        29.99R
HAMILTON         N/A     75  54  46 CALM      30.03S
LIBBY            N/A     81  46  30 CALM      30.01R
PLAINS           N/A     83  47  28 W5        30.00R
RONAN            N/A     79  47  32 E2        30.07R
$$

MTZ008-052>055-250400-
SOUTHWEST MONTANA

CITY           SKY/WX    TMP DP  RH WIND       PRES   REMARKS
BOZEMAN        CLEAR     75  42  30 S7        30.06S
DILLON         CLEAR     73  41  31 NE9       30.08R
W YELLOWSTONE  CLEAR     68  25  19 S3        30.25S
ENNIS          CLEAR     70  36  28 NE7       30.16R
THREE FORKS      N/A     76 -17   2 CALM      30.04
TWIN BRIDGES     N/A     80  44  27 S1        30.06R
$$

MTZ009-010-012-014-046-048-049-054-250400-
EAST SLOPES AND CENTRAL MONTANA

CITY           SKY/WX    TMP DP  RH WIND       PRES   REMARKS
CUT BANK         N/A     73  45  36 W12       30.02R
GREAT FALLS    CLEAR     75  38  26 E7        29.99S
MALMSTROM AFB  CLEAR     77  40  27 E8        29.99S
HELENA         CLEAR     84  38  19 CALM      30.03R
CHOTEAU          N/A     75  39  27 NE7       30.03R
CONRAD           N/A     74  52  46 W1        30.04R
$$

MTZ011-013-016-021-045-047-050-051-250400-
NORTH CENTRAL MONTANA

CITY           SKY/WX    TMP DP  RH WIND       PRES   REMARKS
HAVRE          CLEAR     73  50  44 S8        29.95S
LEWISTOWN      CLEAR     74  48  39 E5        30.07R
N BAR RANCH      N/A     72  41  33 CALM      30.11R
CHINOOK          N/A     79  48  34 CALM      29.96R
$$

MTZ017>020-022>027-061-062-250400-
NORTHEAST MONTANA

CITY           SKY/WX    TMP DP  RH WIND       PRES   REMARKS
GLASGOW        CLEAR     73  53  49 VRB6      29.96S
JORDAN           N/A     76  43  30 NE7       29.98R
SIDNEY         CLEAR     74  55  51 CALM      29.97R
WOLF POINT     CLEAR     75  57  53 N5        29.96R
PLENTYWOOD       N/A     70  61  73 NE8       29.99R
POPLAR           N/A     73  57  56 NE7       29.96S
SCOBEY           N/A     72  53  51 CALM      29.99R
$$

MTZ028>42-056>058-250400-
SOUTHCENTRAL AND SOUTHEAST MONTANA

CITY           SKY/WX    TMP DP  RH WIND       PRES   REMARKS
BAKER          CLEAR     73  53  49 E9        30.03S
BILLINGS       CLEAR     84  37  18 N3        30.01S
LIVINGSTON     CLEAR     72  36  26 S3        30.07S
MILES CITY     CLEAR     83  43  24 NE9       29.97R
EKALAKA          N/A     79  39  23 SE6       30.03S
FORSYTH          N/A     84  45  24 CALM      29.97R
LAUREL           N/A     82  42  24 CALM      30.01S
ROUNDUP          N/A     78  41  26 N3        29.94R
$$

REGIONAL REPORTS...DAKOTAS

CITY           SKY/WX    TMP DP  RH WIND       PRES   REMARKS
WILLISTON      CLEAR     73  58  59 CALM      29.98R
MINOT          CLEAR     70  61  73 CALM      29.99R
DICKINSON      CLEAR     68  53  58 SE10      30.02R
CROSBY           N/A     64  64 100 NE6       30.02R
WATFORD CITY     N/A    N/A N/A N/A MISG        N/A
BISMARCK       CLEAR     67  62  84 SE5       30.03R
GRAND FORKS    CLEAR     67  61  81 W6        29.94R
FARGO          CLEAR     70  61  73 W7        29.96R
BUFFALO SD       N/A     78  45  30 SE15      29.99R
RAPID CITY     CLEAR     71  51  49 SE5       30.09R
$$

REGIONAL REPORTS...WYOMING/IDAHO/WASHINGTON

CITY           SKY/WX    TMP DP  RH WIND       PRES   REMARKS
GILLETTE       CLEAR     67  40  37 CALM      30.09R
SHERIDAN       CLEAR     71  51  49 SW3       30.05R
BUFFALO WY     CLEAR     78  38  23 E3        30.14R
CODY           CLEAR     81  34  18 E6        30.12R
YELLOWSTONE LA   N/A     59  29  31 NW5       30.36S
IDAHO FALLS    CLEAR     80  36  20 S6        30.09F
SALMON         CLEAR     73  46  38 S7        29.97R
BOISE          CLEAR     86  36  16 W6        29.96R
SPOKANE        CLEAR     83  43  24 N9        30.01R
$$

REGIONAL REPORTS...ALBERTA

CITY           SKY/WX    TMP DP  RH WIND       PRES   REMARKS
EDMONTON       MOCLDY    70  54  56 NW3       29.90R
CALGARY        PTCLDY    73  54  49 S3        29.96R
LETHBRIDGE     PTCLDY    70  55  60 SW9       29.95R
MEDICINE HAT   CLEAR     77  57  50 S2        29.92S
WATERTON GATE    N/A     68  46  45 SW9         N/A
MILK RIVER       N/A     68  55  64 N8          N/A
$$

REGIONAL REPORTS...SASKATCHEWAN

CITY           SKY/WX    TMP DP  RH WIND       PRES   REMARKS
SWIFT CURRENT  CLEAR     70  61  73 SE6       29.97S
SASKATOON      PTCLDY    70  61  73 SW10      29.91F
CYPRESS HILLS    N/A     66  50  55 NE2         N/A
VAL MARIE        N/A     68  55  64 SE1         N/A
ROCKGLEN         N/A     68  57  68 NE1         N/A
ASSINIBOIA       N/A     64  59  82 W5          N/A
$$




USA.gov is the U.S. government's official web portal to all federal, state and local government web resources and services.